Wind_Speed
9 11 15 16 16 15 15 15 15 16 16 16 16 16 17 17 17 13 11 8 7 7 7 8 7 6 6 6 7 7 7 8 9 10 10 11 12 13 13 13 14 15 15
9 11 15 16 15 15 15 16 16 17 19 20 19 19 19 17 15 13 12 11 9 9 9 9 9 7 7 7 8 9 10 10 11 12 11 13 14 15 17 17 17 18 18
8 10 12 12 13 11 11 12 12 11 12 12 11 11 12 12 12 13 13 13 11 11 11 11 12 12 12 12 12 12 12 13 14 15 15 15 17 18 19 20 20 21 21
14 13 14 13 13 13 13 14 15 14 14 15 13 13 13 13 14 14 15 14 14 14 14 15 16 17 17 16 16 15 15 15 16 16 18 18 19 20 21 22 22 23 22
17 16 16 16 16 17 17 18 18 18 18 19 18 18 17 17 17 18 18 18 18 18 19 20 20 19 19 20 19 19 19 18 18 18 19 20 20 22 23 24 23 23 25
20 22 17 17 17 17 19 19 20 21 21 21 22 22 22 22 21 22 22 23 22 23 23 24 23 23 23 22 22 22 22 22 24 22 21 22 22 22 22 23 23 23 23
15 17 20 20 20 20 21 23 23 24 24 24 24 24 25 25 24 25 26 26 27 27 27 27 26 26 25 25 25 25 25 25 26 26 25 25 25 24 23 23 24 25 25
17 19 19 20 21 21 22 23 24 25 25 26 27 27 27 27 27 27 28 28 28 30 30 30 29 28 28 28 28 28 28 28 27 28 28 27 27 26 25 25 25 24 25
17 19 21 22 23 24 24 26 27 26 27 27 29 29 28 28 28 29 29 30 31 32 33 32 32 30 30 30 31 31 31 30 28 30 30 30 29 27 26 26 26 24 24
22 23 25 24 24 27 27 28 29 31 32 32 33 32 32 32 33 33 33 33 33 34 35 35 34 34 32 31 32 33 33 33 30 31 31 31 31 30 28 27 25 26 25
27 27 27 28 28 28 29 30 32 34 34 35 35 36 36 37 37 37 37 38 38 38 36 36 35 35 33 33 34 35 35 36 34 33 32 32 32 31 29 28 28 27 26
28 30 32 35 35 35 36 37 38 39 40 40 40 40 40 40 40 40 41 42 43 43 43 41 40 41 38 36 38 39 37 38 38 36 34 33 32 30 30 29 29 29 28
35 37 39 41 44 46 47 46 47 48 49 50 50 50 48 46 46 46 46 45 47 48 45 46 45 43 43 41 44 36 36 38 43 38 34 32 31 30 30 30 30 29 29
39 41 44 48 50 53 54 56 57 58 60 61 61 61 61 58 55 53 51 51 51 51 49 47 49 48 47 43 41 37 38 35 35 31 32 30 30 30 31 30 30 31 30
42 42 46 49 51 53 56 58 61 62 63 65 67 68 69 69 68 65 60 57 58 57 54 53 52 50 48 45 43 41 37 33 29 31 33 29 30 32 33 33 32 32 33
51 55 57 57 56 57 61 63 66 67 67 67 69 72 73 74 73 73 73 70 65 62 62 61 58 55 51 49 44 43 42 43 45 40 39 35 32 36 34 35 35 35 35
64 67 68 70 72 73 74 74 71 72 73 74 77 79 83 81 80 78 77 76 76 71 68 67 67 63 59 55 46 47 46 43 44 35 33 32 32 34 35 35 37 37 37
67 69 72 74 79 82 84 85 84 82 83 83 84 86 89 89 90 88 84 81 79 80 75 72 71 70 67 63 58 50 51 48 48 50 39 37 37 37 38 36 36 36 37
76 77 77 79 81 82 84 85 87 91 92 92 92 93 97 96 94 93 90 88 85 83 81 79 76 76 72 69 67 57 52 53 53 48 44 42 42 45 36 34 37 35 35
85 86 87 90 93 92 89 88 89 94 96 98 97 96 98 98 98 96 95 95 93 91 88 86 83 79 78 74 72 67 63 56 52 52 48 45 47 41 30 35 39 36 34
90 91 93 95 94 94 95 95 94 95 92 89 89 92 94 95 95 97 95 94 96 96 91 87 86 84 81 80 78 73 69 64 60 57 53 51 49 46 47 42 41 37 37
92 93 94 91 88 85 86 89 92 89 83 75 69 68 71 74 74 78 79 82 87 90 92 89 89 89 86 83 82 79 76 72 68 62 56 53 55 51 50 46 42 42 39
90 90 89 86 84 84 83 79 76 72 66 61 57 57 58 58 61 66 68 71 76 83 87 88 90 91 89 86 85 82 79 77 70 68 63 60 58 55 49 46 45 41 52
86 85 81 80 80 77 70 61 59 57 56 54 53 52 50 52 54 58 60 62 66 71 78 84 90 92 91 88 87 84 78 75 65 67 63 63 61 57 54 50 43 45 39
81 79 75 72 62 54 53 52 51 51 50 48 48 45 43 45 48 49 52 55 58 62 69 73 79 86 89 88 85 84 78 73 66 61 56 61 63 62 56 53 37 56 47
69 64 52 40 38 42 45 46 46 49 52 50 45 41 41 40 41 43 43 45 48 53 59 63 68 72 77 82 83 83 81 76 71 66 62 56 52 57 60 58 54 59 58
Wind_Direction
254 277 296 289 283 280 278 273 269 268 266 264 265 270 276 282 286 283 290 291 286 287 288 291 294 297 297 296 294 292 292 289 289 290 288 288 286 284 284 283 282 284 284
272 263 264 288 288 283 282 280 278 278 278 275 276 277 280 282 276 277 282 284 280 280 278 277 276 276 281 288 289 291 292 291 291 290 291 292 291 291 289 285 283 281 283
288 285 283 288 284 282 281 280 278 279 278 277 273 278 278 273 280 280 280 277 277 271 272 269 272 271 272 272 273 275 278 280 281 286 286 284 286 287 285 283 283 281 282
293 289 281 281 280 278 276 276 277 276 277 276 271 262 263 268 269 269 267 268 266 266 266 264 264 265 264 265 267 270 273 271 275 275 281 285 288 288 286 284 282 282 283
292 286 287 285 280 279 278 278 277 281 278 274 270 268 270 268 266 265 265 264 261 259 258 258 259 260 263 264 266 271 273 272 269 270 278 286 289 290 288 285 282 285 288
291 292 284 281 280 281 281 279 276 276 274 273 273 272 270 268 268 269 267 267 264 262 260 260 259 260 259 262 263 266 267 271 276 276 277 281 286 286 286 285 283 287 288
293 290 297 299 293 286 282 280 279 276 274 271 268 269 268 266 265 264 263 263 263 262 262 261 261 262 262 261 261 262 264 266 271 277 280 284 288 289 287 283 284 290 293
297 291 292 289 287 287 287 286 283 280 278 276 274 271 270 270 269 268 268 267 267 268 267 267 266 265 265 264 262 261 261 264 269 272 275 280 286 290 288 285 283 287 292
301 297 295 296 294 293 294 293 289 284 280 279 277 276 275 273 271 270 269 268 268 269 268 269 269 267 266 266 265 265 264 263 264 268 272 276 279 283 286 284 284 284 292
304 302 298 298 295 293 292 289 287 287 287 285 281 279 279 278 277 275 272 271 269 267 266 266 266 266 266 266 268 269 269 267 264 265 269 275 278 279 282 280 279 283 286
305 302 298 296 293 289 286 287 287 285 283 280 279 279 278 279 277 274 273 272 271 268 266 266 265 264 265 267 267 266 268 269 269 268 268 269 274 276 276 275 277 282 284
306 304 301 300 295 292 292 291 289 288 288 286 283 280 278 276 275 274 274 273 270 270 269 266 266 264 263 265 264 264 263 267 267 264 266 268 271 273 273 272 273 280 282
305 304 302 299 298 297 294 291 289 288 287 286 285 284 281 278 275 273 271 269 269 269 269 270 267 265 264 265 269 274 268 266 271 264 264 265 268 274 275 274 274 278 281
301 299 297 296 295 294 293 292 289 288 287 285 283 282 280 279 278 275 272 270 268 267 268 266 267 269 266 266 266 266 264 267 279 252 263 263 264 268 271 273 274 276 278
295 296 299 302 300 298 296 293 292 287 286 286 284 282 279 278 277 275 272 269 268 266 264 264 263 262 263 264 262 262 263 261 256 257 260 260 263 264 269 274 273 274 274
302 300 303 302 296 293 292 290 290 288 283 279 280 280 280 278 274 273 272 270 266 265 266 263 261 259 260 261 259 260 259 257 259 264 257 255 257 265 265 267 269 269 273
301 302 302 301 301 300 298 296 290 287 284 280 278 277 281 278 273 271 269 268 266 263 259 258 259 259 257 257 254 256 258 260 256 249 257 261 262 260 262 266 265 269 273
298 298 296 295 296 297 295 293 291 287 285 282 278 276 274 274 274 270 266 264 264 262 259 256 254 253 255 254 253 247 253 256 257 257 264 267 264 262 261 261 262 267 269
302 302 298 296 295 292 290 288 287 286 284 282 280 276 273 271 268 266 265 263 261 260 259 257 253 251 249 250 251 245 244 249 255 255 258 262 264 273 254 261 267 267 269
307 304 302 300 298 295 293 289 285 282 280 278 277 275 273 270 266 262 261 261 261 258 256 256 253 250 249 245 245 248 247 243 246 252 251 254 259 257 263 267 268 266 269
307 304 303 299 296 296 294 291 288 286 287 285 281 277 275 272 271 269 264 260 258 257 253 250 249 248 246 246 244 241 242 242 243 245 247 251 250 249 272 265 266 269 265
305 301 299 298 297 295 293 289 289 291 290 289 285 280 275 272 269 265 262 258 255 252 249 245 244 244 244 243 243 242 241 243 244 246 243 244 248 252 257 261 263 266 262
300 299 298 296 294 292 292 291 292 292 292 291 287 283 280 274 267 263 260 256 251 247 244 243 242 241 241 241 241 240 240 242 242 244 242 242 245 248 250 257 263 262 260
296 295 295 294 294 295 294 295 294 294 293 291 289 283 279 275 270 267 264 258 252 247 243 241 239 240 239 240 241 240 239 238 238 240 240 242 243 244 247 251 258 251 247
297 294 293 295 295 294 294 296 296 297 295 294 292 286 280 273 269 268 266 263 258 251 244 243 241 241 240 237 238 239 239 237 236 233 235 238 242 241 240 242 237 251 259
296 299 301 296 294 293 293 292 294 296 298 296 292 287 281 272 270 271 270 265 260 256 250 243 241 241 240 237 235 236 236 237 236 232 232 233 235 237 237 238 239 246 270
Height
5878 5878 5877 5877 5876 5875 5874 5873 5873 5872 5872 5871 5870 5870 5870 5869 5868 5868 5867 5866 5865 5864 5864 5864 5863 5861 5862 5862 5862 5862 5862 5861 5860 5860 5859 5858 5858 5857 5856 5855 5855 5854 5853
5877 5876 5875 5874 5873 5872 5871 5871 5870 5870 5870 5869 5868 5868 5868 5866 5866 5866 5865 5864 5863 5862 5862 5861 5861 5859 5860 5860 5860 5859 5859 5858 5857 5857 5857 5856 5855 5854 5854 5853 5852 5851 5850
5875 5874 5873 5871 5870 5869 5869 5869 5868 5867 5867 5866 5865 5865 5864 5864 5863 5864 5863 5862 5860 5860 5860 5859 5858 5857 5857 5856 5857 5856 5856 5856 5854 5853 5853 5852 5852 5851 5850 5850 5848 5847 5846
5872 5871 5870 5869 5868 5866 5866 5866 5866 5864 5864 5864 5862 5862 5862 5861 5860 5859 5859 5858 5857 5856 5856 5855 5855 5854 5853 5853 5853 5852 5852 5852 5851 5850 5849 5848 5847 5847 5845 5845 5844 5843 5842
5868 5868 5867 5865 5864 5863 5862 5862 5862 5861 5860 5860 5860 5859 5857 5857 5856 5855 5854 5854 5853 5852 5852 5851 5850 5849 5849 5849 5848 5848 5848 5848 5848 5847 5845 5844 5843 5842 5841 5840 5839 5838 5838
5864 5862 5863 5862 5861 5859 5859 5858 5857 5856 5856 5855 5855 5854 5853 5853 5852 5851 5850 5849 5848 5848 5847 5847 5846 5845 5844 5843 5843 5844 5844 5843 5842 5842 5842 5840 5839 5838 5836 5835 5835 5834 5833
5864 5861 5858 5858 5857 5856 5855 5854 5852 5851 5850 5848 5848 5847 5846 5846 5846 5845 5844 5843 5842 5842 5841 5841 5840 5839 5838 5838 5838 5838 5838 5838 5837 5836 5835 5835 5833 5832 5831 5830 5830 5829 5828
5859 5857 5855 5853 5852 5851 5850 5849 5848 5846 5844 5843 5842 5840 5840 5840 5840 5839 5837 5837 5836 5835 5834 5834 5834 5833 5834 5833 5833 5833 5833 5833 5833 5830 5829 5828 5828 5826 5826 5825 5825 5824 5823
5853 5851 5850 5848 5847 5846 5844 5842 5840 5839 5838 5837 5836 5834 5833 5833 5832 5831 5831 5830 5829 5827 5827 5827 5827 5827 5827 5827 5826 5826 5827 5828 5829 5826 5824 5823 5822 5822 5820 5820 5820 5819 5818
5848 5845 5842 5841 5840 5837 5836 5834 5832 5831 5830 5829 5828 5827 5826 5825 5825 5824 5823 5821 5821 5820 5820 5819 5819 5820 5819 5819 5820 5819 5819 5821 5823 5822 5819 5817 5817 5816 5816 5815 5815 5813 5813
5841 5840 5838 5836 5834 5831 5829 5826 5824 5822 5821 5820 5819 5817 5817 5817 5816 5815 5813 5812 5811 5811 5811 5811 5811 5811 5812 5812 5811 5811 5811 5811 5814 5815 5813 5812 5810 5810 5810 5810 5810 5809 5808
5835 5833 5830 5828 5826 5824 5822 5820 5817 5815 5812 5810 5809 5808 5807 5807 5806 5806 5805 5804 5802 5801 5802 5802 5802 5801 5802 5803 5803 5803 5803 5802 5804 5806 5806 5805 5803 5803 5804 5803 5803 5803 5802
5828 5824 5822 5817 5813 5811 5810 5809 5808 5805 5803 5800 5797 5796 5795 5794 5794 5794 5794 5793 5791 5790 5791 5791 5791 5792 5791 5793 5794 5793 5795 5793 5793 5796 5798 5798 5796 5795 5796 5796 5796 5796 5797
5823 5818 5814 5808 5803 5799 5796 5792 5791 5790 5788 5786 5784 5782 5782 5781 5780 5779 5780 5781 5780 5779 5779 5779 5780 5781 5782 5782 5783 5783 5785 5783 5782 5786 5788 5789 5788 5788 5788 5789 5789 5789 5791
5813 5809 5805 5800 5794 5789 5783 5779 5776 5773 5771 5769 5765 5763 5764 5764 5764 5765 5765 5765 5766 5767 5767 5766 5766 5767 5770 5773 5774 5775 5776 5775 5775 5779 5780 5780 5782 5781 5781 5781 5781 5782 5783
5800 5795 5790 5784 5779 5773 5767 5762 5757 5754 5752 5749 5747 5745 5744 5743 5742 5743 5745 5747 5748 5750 5752 5754 5754 5754 5756 5758 5763 5765 5766 5767 5768 5770 5772 5771 5773 5773 5773 5774 5773 5774 5774
5783 5777 5771 5763 5755 5752 5746 5741 5737 5734 5730 5727 5725 5722 5720 5720 5721 5723 5723 5725 5726 5730 5733 5736 5738 5741 5741 5743 5748 5752 5755 5758 5758 5759 5760 5761 5762 5764 5764 5765 5766 5766 5766
5766 5760 5752 5746 5739 5731 5725 5717 5713 5709 5705 5702 5700 5699 5696 5694 5694 5696 5698 5701 5703 5705 5710 5715 5719 5724 5728 5728 5731 5736 5741 5745 5749 5751 5752 5753 5754 5755 5755 5756 5757 5759 5759
5745 5738 5732 5725 5717 5709 5701 5694 5688 5681 5676 5673 5670 5667 5666 5666 5666 5666 5669 5673 5677 5681 5684 5691 5698 5703 5709 5713 5716 5719 5725 5730 5735 5739 5742 5744 5744 5745 5746 5748 5751 5749 5751
5720 5711 5701 5692 5682 5675 5669 5664 5658 5651 5645 5643 5638 5635 5634 5633 5634 5637 5640 5643 5647 5654 5659 5665 5673 5679 5688 5694 5698 5703 5708 5715 5720 5725 5731 5734 5735 5737 5735 5738 5742 5741 5743
5693 5682 5673 5666 5655 5646 5637 5632 5624 5617 5616 5611 5607 5603 5601 5599 5599 5601 5608 5613 5618 5624 5632 5638 5646 5654 5663 5671 5677 5688 5691 5697 5703 5710 5715 5721 5724 5725 5724 5730 5733 5733 5735
5665 5657 5648 5639 5631 5623 5615 5606 5597 5589 5586 5581 5578 5574 5570 5569 5570 5570 5574 5580 5586 5593 5602 5610 5617 5627 5639 5646 5655 5663 5673 5681 5688 5695 5702 5707 5711 5714 5717 5719 5722 5724 5726
5644 5633 5624 5616 5609 5600 5591 5585 5579 5572 5566 5562 5558 5553 5550 5548 5547 5546 5548 5552 5558 5563 5573 5582 5590 5599 5611 5622 5631 5641 5652 5661 5673 5678 5684 5692 5697 5702 5707 5710 5712 5716 5715
5624 5614 5603 5595 5586 5579 5572 5567 5561 5556 5552 5547 5541 5537 5535 5531 5529 5528 5528 5530 5534 5539 5545 5555 5563 5572 5584 5599 5608 5619 5630 5642 5653 5662 5669 5677 5684 5690 5694 5700 5703 5702 5701
5601 5593 5585 5577 5569 5563 5557 5552 5547 5543 5538 5534 5528 5523 5520 5516 5513 5512 5512 5513 5516 5519 5526 5533 5540 5548 5560 5574 5586 5597 5610 5622 5634 5644 5653 5661 5669 5676 5682 5689 5693 5692 5692
5581 5576 5571 5565 5558 5553 5549 5545 5539 5532 5525 5520 5515 5511 5506 5503 5502 5500 5499 5500 5501 5503 5508 5515 5522 5530 5539 5551 5565 5576 5589 5602 5615 5627 5638 5646 5652 5660 5668 5676 5681 5684 5684